Location: Unspecified
(33.6682°S, 0.0000°E)
Time: 09:25:19
(UTC+00:00)

Vanguard 2 Rocket - Pass Details

Date: 26 June 2019
Orbit: 553 x 3327 km, 32.9° (Epoch: 24 August)

Event Time Altitude Azimuth Distance (km) Brightness Sun altitude
Rises 09:27:09 0° 279° (W) 6,934 11.1 22.0°
Reaches altitude 10° 09:32:17 10° 279° (W) 5,613 10.7 22.7°
Maximum altitude 09:47:59 86° 5° (N) 1,870 9.0 24.6°
Drops below altitude 10° 09:56:33 10° 92° (E) 3,257 10.2 25.5°
Sets 09:58:46 0° 92° (E) 3,963 10.6 25.8°
